Puyallup, WA
on Tuesday, February 26, 2013

Tuesday
Previous Day Next Day
Daily Summary
 ActualAverage (KSEA)Record (KSEA)
Temperature
Mean Temperature °F 44°F  
Max Temperature 46°F 51°F 67°F (1992)
Min Temperature 37°F 37°F 18°F (1962)
Degree Days
Heating Degree Days 24 21  
Month to date heating degree days 564  
Since 1 July heating degree days 3213  
Cooling Degree Days 0 0  
Month to date cooling degree days 0  
Year to date cooling degree days 0  
Moisture
Dew Point 31°F   
Average Humidity 66    
Maximum Humidity 81    
Minimum Humidity 50    
Precipitation
Precipitation 0.00 in 0.12 in 1.19 in (1965)
Month to date precipitation 3.25  
Year to date precipitation 8.82  
Snow
Snow 0.00 in in 2.10 in (2009)
Month to date snowfall  
Since 1 July snowfall  
Snow Depth in   
Wind
Wind Speed 3 mph   
Max Wind Speed 9 mph   
Max Gust Speed 16 mph   
Visibility 10 miles   
Events Rain   

Key: T is trace of precipitation, MM is missing value
Source: NWS Daily Summary
Time(PST)TemperatureDew PointHumidity Pressure Visibility Wind DirectionWind SpeedGust SpeedPrecipitationEvents Conditions
12:15 AM 37.4°F 32.0°F 81% 30.32 in 10.0 miles SSW 3.5 mph - N/A   Scattered Clouds
12:35 AM 37.4°F 32.0°F 81% 30.31 in 10.0 miles South 5.8 mph - N/A   Scattered Clouds
12:55 AM 37.4°F 32.0°F 81% 30.32 in 10.0 miles SSW 6.9 mph - N/A   Partly Cloudy
1:15 AM 37.4°F 32.0°F 81% 30.32 in 10.0 miles Calm Calm - N/A   Partly Cloudy
1:35 AM 37.4°F 32.0°F 81% 30.32 in 10.0 miles Calm Calm - N/A   Mostly Cloudy
1:55 AM 37.4°F 32.0°F 81% 30.33 in 10.0 miles Calm Calm - N/A   Mostly Cloudy
2:15 AM 37.4°F 32.0°F 81% 30.33 in 10.0 miles Calm Calm - N/A   Mostly Cloudy
2:35 AM 37.4°F 32.0°F 81% 30.33 in 10.0 miles Calm Calm - N/A   Overcast
2:55 AM 39.2°F 32.0°F 75% 30.33 in 10.0 miles Calm Calm - N/A   Mostly Cloudy
3:15 AM 39.2°F 32.0°F 75% 30.33 in 10.0 miles SSW 4.6 mph - N/A   Overcast
3:35 AM 39.2°F 32.0°F 75% 30.33 in 10.0 miles Calm Calm - N/A   Mostly Cloudy
3:55 AM 39.2°F 32.0°F 75% 30.33 in 10.0 miles Calm Calm - N/A   Overcast
4:15 AM 39.2°F 32.0°F 75% 30.33 in 10.0 miles SSW 4.6 mph - N/A   Overcast
4:35 AM 39.2°F 32.0°F 75% 30.33 in 10.0 miles Calm Calm - N/A   Overcast
4:55 AM 39.2°F 32.0°F 75% 30.34 in 10.0 miles Calm Calm - N/A   Overcast
5:15 AM 39.2°F 32.0°F 75% 30.34 in 10.0 miles Calm Calm - N/A   Mostly Cloudy
5:55 AM 39.2°F 32.0°F 75% 30.34 in 10.0 miles Calm Calm - N/A   Mostly Cloudy
6:15 AM 39.2°F 32.0°F 75% 30.34 in 10.0 miles Calm Calm - N/A   Overcast
6:35 AM 39.2°F 32.0°F 75% 30.35 in 10.0 miles Calm Calm - N/A   Mostly Cloudy
6:55 AM 37.4°F 32.0°F 81% 30.35 in 10.0 miles Calm Calm - N/A   Mostly Cloudy
7:15 AM 39.2°F 32.0°F 75% 30.35 in 10.0 miles South 5.8 mph - N/A   Mostly Cloudy
7:35 AM 39.2°F 32.0°F 75% 30.35 in 10.0 miles South 5.8 mph - N/A   Mostly Cloudy
7:55 AM 39.2°F 32.0°F 75% 30.35 in 10.0 miles South 4.6 mph - N/A   Overcast
8:15 AM 39.2°F 32.0°F 75% 30.36 in 10.0 miles Calm Calm - N/A   Mostly Cloudy
8:35 AM 39.2°F 32.0°F 75% 30.36 in 10.0 miles Calm Calm - N/A   Mostly Cloudy
8:55 AM 41.0°F 32.0°F 70% 30.35 in 10.0 miles Calm Calm - N/A   Mostly Cloudy
9:15 AM 41.0°F 32.0°F 70% 30.35 in 10.0 miles Calm Calm - N/A   Overcast
9:35 AM 44.6°F 32.0°F 61% 30.34 in 10.0 miles SSW 4.6 mph - N/A   Overcast
9:55 AM 44.6°F 30.2°F 57% 30.34 in 10.0 miles South 6.9 mph - N/A   Mostly Cloudy
10:15 AM 46.4°F 30.2°F 53% 30.33 in 10.0 miles Calm Calm - N/A   Mostly Cloudy
10:35 AM 44.6°F 28.4°F 53% 30.33 in 10.0 miles SW 5.8 mph - N/A   Overcast
10:55 AM 44.6°F 30.2°F 57% 30.32 in 10.0 miles Calm Calm - N/A   Mostly Cloudy
11:15 AM 44.6°F 28.4°F 53% 30.31 in 10.0 miles Calm Calm - N/A   Scattered Clouds
11:35 AM 44.6°F 28.4°F 53% 30.31 in 10.0 miles South 4.6 mph - N/A   Mostly Cloudy
11:55 AM 44.6°F 28.4°F 53% 30.31 in 10.0 miles Calm Calm - N/A   Overcast
12:15 PM 44.6°F 28.4°F 53% 30.31 in 10.0 miles SSW 3.5 mph - N/A   Overcast
12:35 PM 44.6°F 30.2°F 57% 30.30 in 10.0 miles South 5.8 mph - N/A   Scattered Clouds
12:55 PM 44.6°F 30.2°F 57% 30.29 in 10.0 miles South 5.8 mph - N/A   Partly Cloudy
1:15 PM 44.6°F 28.4°F 53% 30.29 in 10.0 miles South 5.8 mph - N/A   Scattered Clouds
1:35 PM 46.4°F 28.4°F 50% 30.27 in 10.0 miles South 6.9 mph - N/A   Clear
1:55 PM 46.4°F 28.4°F 50% 30.26 in 10.0 miles South 5.8 mph - N/A   Partly Cloudy
2:15 PM 46.4°F 28.4°F 50% 30.26 in 10.0 miles SW 3.5 mph - N/A   Clear
2:35 PM 46.4°F 28.4°F 50% 30.26 in 10.0 miles SSW 5.8 mph - N/A   Clear
2:55 PM 46.4°F 28.4°F 50% 30.25 in 10.0 miles SSW 5.8 mph - N/A   Clear
3:15 PM 46.4°F 28.4°F 50% 30.25 in 10.0 miles WSW 6.9 mph - N/A   Clear
3:35 PM 46.4°F 30.2°F 53% 30.25 in 10.0 miles WSW 8.1 mph - N/A   Partly Cloudy
3:55 PM 46.4°F 30.2°F 53% 30.25 in 10.0 miles WSW 6.9 mph - N/A   Partly Cloudy
4:15 PM 46.4°F 30.2°F 53% 30.25 in 10.0 miles West 6.9 mph - N/A   Partly Cloudy
4:35 PM 46.4°F 32.0°F 57% 30.24 in 10.0 miles West 5.8 mph - N/A   Partly Cloudy
4:55 PM 44.6°F 32.0°F 61% 30.24 in 10.0 miles WSW 3.5 mph - N/A   Partly Cloudy
5:15 PM 44.6°F 32.0°F 61% 30.24 in 10.0 miles Calm Calm - N/A   Partly Cloudy
5:35 PM 44.6°F 32.0°F 61% 30.23 in 10.0 miles Calm Calm - N/A   Partly Cloudy
5:55 PM 44.6°F 32.0°F 61% 30.23 in 10.0 miles Calm Calm - N/A   Scattered Clouds
6:15 PM 44.6°F 32.0°F 61% 30.22 in 10.0 miles Calm Calm - N/A   Scattered Clouds
6:35 PM 44.6°F 32.0°F 61% 30.22 in 10.0 miles Calm Calm - N/A   Partly Cloudy
6:55 PM 42.8°F 32.0°F 66% 30.22 in 10.0 miles Calm Calm - N/A   Scattered Clouds
7:15 PM 42.8°F 33.8°F 70% 30.23 in 10.0 miles Calm Calm - N/A Rain Light Rain
7:35 PM 42.8°F 33.8°F 70% 30.22 in 9.0 miles Calm Calm - N/A Rain Light Rain
7:55 PM 41.0°F 33.8°F 76% 30.21 in 10.0 miles Calm Calm - N/A   Scattered Clouds
8:15 PM 41.0°F 33.8°F 76% 30.21 in 10.0 miles Calm Calm - N/A   Mostly Cloudy
8:35 PM 41.0°F 35.6°F 81% 30.21 in 10.0 miles Calm Calm - N/A   Overcast
8:55 PM 41.0°F 35.6°F 81% 30.21 in 10.0 miles Calm Calm - N/A   Mostly Cloudy
9:15 PM 42.8°F 32.0°F 66% 30.20 in 10.0 miles Calm Calm - N/A   Overcast
9:35 PM 44.6°F 32.0°F 61% 30.20 in 10.0 miles South 3.5 mph - N/A   Overcast
9:55 PM 44.6°F 32.0°F 61% 30.20 in 10.0 miles SSW 5.8 mph - N/A   Overcast
10:15 PM 44.6°F 32.0°F 61% 30.20 in 10.0 miles South 6.9 mph - N/A   Overcast
10:35 PM 44.6°F 32.0°F 61% 30.20 in 10.0 miles South 5.8 mph - N/A   Overcast
10:55 PM 44.6°F 32.0°F 61% 30.20 in 10.0 miles SSW 9.2 mph - N/A   Overcast
11:35 PM 44.6°F 32.0°F 61% 30.19 in 10.0 miles SSW 9.2 mph 16.1 mph N/A   Overcast
11:55 PM 44.6°F 32.0°F 61% 30.19 in 10.0 miles SSW 6.9 mph - N/A   Unknown
Moon Phase
Feb. 26 Mar. 04 Mar. 11 Mar. 19 Mar. 27
Sunrise:06:54 AM (PST) Moon Rise:07:22 PM (PST)
Sunset:05:50 PM (PST) Moon Set:06:52 AM (PST)

Copyright © 2014 The Weather Underground, Inc.